Regional Weather Roundup
Issued by NWS Memphis, TN

Home | Current Version | Previous Version | Text Only | Print | Product List | Glossary On
Versions: 1 2 3 4 5 6 7 8 9 10 11 12 13 14 15 16 17 18 19 20 21 22 23 24 25 26 27 28 29 30 31 32 33 34 35 36 37 38 39 40 41 42 43 44 45 46 47 48 49 50
000
ASUS44 KMEG 011610
RWRMEG
MEMPHIS CWA HOURLY WEATHER ROUNDUP
NATIONAL WEATHER SERVICE MEMPHIS TN
1100 AM CDT SUN MAY 01 2016

...WEST TENNESSEE...

CITY           SKY/WX    TMP DP  RH WIND       PRES   REMARKS
MEMPHIS INTL   PTSUNNY   79  70  73 SW5       29.95R
NWS MEMPHIS      N/A     80 N/A N/A MISG        N/A
JACKSON        PTSUNNY   76  67  73 S7        29.95R
LEXINGTON      CLOUDY    73  66  78 S6        29.96R
DYERSBURG      PTSUNNY   79  66  65 SW7         N/A
UNION CITY     CLOUDY    75  70  83 VRB5      29.92R


...EASTERN ARKANSAS...

CITY           SKY/WX    TMP DP  RH WIND       PRES   REMARKS
JONESBORO      SUNNY     73  63  70 W9        29.94R
WEST MEMPHIS   PTSUNNY   75  69  81 CALM      29.93R
BATESVILLE     SUNNY     70  57  64 NW6       29.98R
NEWPORT        SUNNY     72  62  70 NW12      29.98R
WALNUT RIDGE   SUNNY     70  57  64 NW12      29.96R
BLYTHEVILLE    PTSUNNY   75  68  78 W8        29.93R
SEARCY         MOSUNNY   73  62  68 MISG      29.98R
STUTTGART      CLOUDY    72  64  78 NE3       29.94F
PINE BLUFF     SUNNY     74  66  76 E5        29.93F
MONTICELLO     CLOUDY    73  69  87 NE5       29.94R


...NORTH MISSISSIPPI...

CITY           SKY/WX    TMP DP  RH WIND       PRES   REMARKS
TUPELO         CLOUDY    74  64  71 VRB5      29.97S
OXFORD         CLOUDY    70  66  88 S3        29.97F
BATESVILLE     CLOUDY    73  68  84 SE3       29.96S
OLIVE BRANCH   PTSUNNY   72  72 100 S6        29.95R
TUNICA         CLOUDY    72  68  88 SE7       29.95S
CORINTH        CLOUDY    72  66  83 VRB6      29.97S
GREENWOOD      CLOUDY    73  67  81 VRB5      29.94S
COLUMBUS       PTSUNNY   68  67  97 SE10      29.99S
STARKVILLE     PTSUNNY   68  64  88 SE6       29.96F
GOLDEN TRIANGL TSTM      66  63  88 SE5       29.98S


...SOUTHEAST MISSOURI...

CITY           SKY/WX    TMP DP  RH WIND       PRES   REMARKS
KENNETT        CLOUDY    73  66  78 SW7       29.93R HAZE
WEST PLAINS    SUNNY     66  52  60 NW10      29.99R
POPLAR BLUFF   MOSUNNY   72  62  71 NW6       29.93R
CAPE GIRARDEAU CLOUDY    71  62  73 W8        29.93R


...NORTHWEST ALABAMA...

CITY           SKY/WX    TMP DP  RH WIND       PRES   REMARKS


...MIDDLE TENNESSEE...

CITY           SKY/WX    TMP DP  RH WIND       PRES   REMARKS
NASHVILLE      PTSUNNY   73  63  68 S7        29.97F
CLARKSVILLE    CLOUDY    71  65  81 S7        29.95S
COLUMBIA       MOSUNNY   75  75 100 SW7       29.97S


...WESTERN KENTUCKY...

CITY           SKY/WX    TMP DP  RH WIND       PRES   REMARKS
PADUCAH        CLOUDY    71  65  81 SW5       29.93R
FORT CAMPBELL  CLOUDY    72  67  84 S7        29.95R


...CENTRAL ARKANSAS...

CITY           SKY/WX    TMP DP  RH WIND       PRES   REMARKS
LITTLE ROCK    PTSUNNY   75  58  55 NW6       29.97R


SKY/WX REPORTED AS FAIR MEANS FEW OR NO CLOUDS BELOW
12 THOUSAND FEET.




USA.gov is the U.S. government's official web portal to all federal, state and local government web resources and services.